sat.trackr.live / text

‹ back to catalog

INMARSAT 5-F2

NORAD 40384 · 2015-005A

PAYLOAD ACTIVE UNKNOWN

§ Identity

Operator
Country
IM
Launch date
2015-02-01
Launch site
TYMSC
Launch vehicle
Mass (kg)
RCS (m²)
16.57

Purposes: comms

External: N2YO · Heavens-Above · Gunter

§ Orbital elements

Epoch: 2026-05-24T20:38:17.473344Z

Period
1,436.10 min
Inclination
0.0160°
Eccentricity
0.0001505
Mean motion
1.00271835 rev/d
Perigee alt
35,780.2 km
Apogee alt
35,792.9 km
Semi-major
42,164.7 km
B*
0.0000e+0
RAAN
339.1108°
Arg perigee
206.4935°
Mean anomaly
311.3838°
Rev number
4,076

§ Raw data

INMARSAT 5-F21 40384U 15005A   26144.85992446 -.00000289  00000+0  00000+0 0  99922 40384   0.0160 339.1108 0001505 206.4935 311.3838  1.00271835 40764

JSON: /api/v1/satellites/40384 · /tle

For live sub-satellite position, see the globe view (requires WebGL).

§ Visibility from observer

Set your observer location to see the next 7 days of passes ≥ 10°. The values pass through the URL so the page stays shareable.

No JS? Fill the form by hand. The geolocation button needs JavaScript.